Notices

What's New in latest Release from April 7th, 2021:

- Updated Glossary, including Speed of Maximum Gust, and Total Hourly Precipitation

- Updated national and regional climate services offices contacts and prices information

- Addition of station inventory lists for 1981-2010, 1971-2000, and 1961-1990 Normals.

If you haven't already, please take our survey and provide feedback about our website: https://eccc.sondage-survey.ca/f/LanguageSelection.aspx?s=442ca660-fcf1-47c0-95a9-59707d6fd709

Hourly Data Report for December 27, 2020

SHEARWATER RCS
NOVA SCOTIA
Current Station Operator: ECCC - MSC

44°37'47.000" N
63°30'48.000" W
24.00 m
8205092
71264
AAW

Download Data

Hourly Data (December 2020)
Hourly Data Report for December 27, 2020
TIME
LST
Temp Definition
°C
Dew Point Definition
°C
Rel Hum Definition
%
Precip. Amount Definition
mm

Wind Dir Definition
10's deg

Wind Spd Definition
km/h
Visibility Definition
km
Stn Press Definition
kPa
Hmdx Definition


Wind Chill Definition


Weather Definition


00:00 2.4 -2.4 71 0.0 23 18   100.47     LegendNANA
01:00 2.5 -2.6 69 0.0 23 19   100.58     LegendNANA
02:00 2.6 -2.1 71 0.0 23 17   100.68     LegendNANA
03:00 2.6 -2.3 70 0.0 24 21   100.80     LegendNANA
04:00 2.1 -1.5 77 0.0 25 11   100.92     LegendNANA
05:00 1.6 -1.3 81 0.0 25 13   101.03     LegendNANA
06:00 1.5 -2.0 78 0.0 24 12   101.18     LegendNANA
07:00 1.2 -2.6 76 0.0 25 14   101.30     LegendNANA
08:00 0.7 -2.3 80 0.0 24 11   101.44     LegendNANA
09:00 1.3 -1.9 79 0.2 24 7   101.58     LegendNANA
10:00 2.4 -1.9 73 0.0 26 7   101.70     LegendNANA
11:00 2.9 -2.8 66 0.0 25 10   101.79     LegendNANA
12:00 3.2 -3.6 61 0.0 26 14   101.78     LegendNANA
13:00 3.1 -3.6 61 0.0 27 12   101.82     LegendNANA
14:00 3.1 -4.0 59 0.0 26 14   101.85     LegendNANA
15:00 3.2 -3.9 60 0.0 27 12   101.94     LegendNANA
16:00 1.9 -5.3 59 0.0 27 12   102.06     LegendNANA
17:00 1.1 -5.2 63 0.0 29 8   102.16     LegendNANA
18:00 0.6 -4.7 68 0.0 29 5   102.27     LegendNANA
19:00 0.1 -4.4 71 0.0 29 5   102.37     LegendNANA
20:00 -0.2 -4.9 71 0.0 31 8   102.50   -3 LegendNANA
21:00 -1.1 -5.8 70 0.0 33 6   102.58   -3 LegendNANA
22:00 -1.8 -5.8 74 0.0 34 6   102.64   -4 LegendNANA
23:00 -2.0 -6.1 73 0.0 33 6   102.69   -4 LegendNANA

Notes on Data Quality.

Legend

  • E = Estimated
  • M = Missing
  • NA = Not Available*
  • [empty] = Indicates an unobserved value
Date modified: